Weather Roundup
Issued by NWS

Home | Current Version | Previous Version | Text Only | Print | Product List | Glossary On
Versions: 1 2 3 4 5 6 7 8 9 10 11 12 13 14 15 16 17 18 19 20 21 22 23 24 25 26 27 28 29 30 31 32 33 34 35 36 37 38 39 40 41 42 43 44 45 46 47 48 49 50
665
NZUS93 KARX 271610
HRRWXR

CURRENT HOURLY OBSERVATIONS ACROSS
MUCH OF THE UPPER MISSISSIPPI VALLEY
NATIONAL WEATHER SERVICE LA CROSSE WI
1100 AM CDT TUE JUN 27 2017


...SOUTHEAST MINNESOTA...


CITY           SKY/WX    TMP DP  RH WIND       PRES   REMARKS
ROCHESTER      SUNNY     69  42  37 SW9       30.10F
ROCHESTER/MAYO FAIR      68  39  35 S7        30.09F
WINONA         SUNNY     70  45  40 NW3       30.09F
AUSTIN         SUNNY     66  43  42 S6        30.09F
ALBERT LEA     SUNNY     70  39  32 S8        30.08F
DODGE CENTER   SUNNY     68  39  34 S12       30.09F
PRESTON        SUNNY     68  44  42 SW8       30.10F
OWATONNA       SUNNY     70  43  37 S12       30.08F
FARIBAULT      SUNNY     70  43  37 S9        30.07F
$$

...ELSEWHERE IN MINNESOTA...


CITY           SKY/WX    TMP DP  RH WIND       PRES   REMARKS
MINNEAPOLIS    MOSUNNY   71  43  36 SW8       30.05F
INTNL FALLS    SUNNY     69  45  41 SW13G21   29.93F
DULUTH         SUNNY     69  45  41 W14G20    30.00F
RED WING       SUNNY     72  39  30 W7        30.05F
REDWOOD FALLS  SUNNY     72  40  31 S14G23    30.01F
MANKATO        MOSUNNY   68  40  35 S9        30.06F
WORTHINGTON    MOSUNNY   68  44  42 S15G21    30.05F
FAIRMONT       SUNNY     69  43  38 S14G20    30.07F
$$

...SOUTHWEST WISCONSIN...


CITY           SKY/WX    TMP DP  RH WIND       PRES   REMARKS
LA CROSSE      SUNNY     75  47  36 W7        30.09F
PRAIRIE DU CHI SUNNY     71  42  35 SW6       30.11F
BOSCOBEL       SUNNY     72  48  42 SW6       30.12F
LONE ROCK      SUNNY     70  47  43 MISG      30.12F
PLATTEVILLE    SUNNY     70  48  45 SW6       30.14S
FORT MC COY    SUNNY     69  49  48 W6        30.11F
CAMP DOUGLAS   PTSUNNY   70  50  49 W9        30.09F
MAUSTON-NEW LI SUNNY     69  48  46 W13G21    30.10S
VIROQUA        FAIR      68  48  49 W8        30.12F
WIS DELLS      SUNNY     70  47  43 W9        30.11S
$$

...ELSEWHERE IN WISCONSIN...


CITY           SKY/WX    TMP DP  RH WIND       PRES   REMARKS
MILWAUKEE      MOSUNNY   72  47  40 NW14G22   30.10F
MADISON        MOSUNNY   69  47  45 VRB3      30.11F
GREEN BAY      MOSUNNY   69  54  58 SW7       30.06S
EAU CLAIRE     SUNNY     70  49  47 W9        30.06F
BLACK RVR FLS  FAIR      72  43  35 W8        30.09S
MEDFORD        SUNNY     66  45  46 W9        30.07F
WAUSAU         SUNNY     69  47  45 W10       30.05F
WIS RAPIDS     SUNNY     71  49  45 NW13      30.09F
MARSHFIELD     SUNNY     68  48  48 W12       30.08F
RICE LAKE      SUNNY     68  44  42 W8        30.08F
$$

...NORTHEAST IOWA...


CITY           SKY/WX    TMP DP  RH WIND       PRES   REMARKS
WATERLOO       SUNNY     70  42  36 SW7       30.11F
DUBUQUE        SUNNY     69  44  40 W5        30.14F
DECORAH        SUNNY     68  45  42 VRB6G12   30.11F
MASON CITY     SUNNY     69  41  36 S9        30.11F
CHARLES CITY   SUNNY     70  41  35 SW8G15    30.11F
OELWEIN        NOT AVBL
$$

...ELSEWHERE IN IOWA...


CITY           SKY/WX    TMP DP  RH WIND       PRES   REMARKS
DES MOINES     MOSUNNY   71  43  36 SE10      30.11F
IOWA CITY      SUNNY     71  45  39 SE5       30.16F
FORT DODGE     SUNNY     72  43  35 S10       30.10F
MARSHALLTOWN   SUNNY     70  44  39 SW9       30.12F
CEDAR RAPIDS   SUNNY     69  48  47 SE7       30.14F
$$

...NORTHERN ILLINOIS...


CITY           SKY/WX    TMP DP  RH WIND       PRES   REMARKS
CHICAGO-OHARE  MOSUNNY   71  44  37 NW13      30.12F
CHICAGO-MIDWAY MOSUNNY   71  46  40 NW9       30.13F
MOLINE         SUNNY     73  46  38 N6        30.15F
ROCKFORD       MOSUNNY   72  46  39 NW9       30.15S
PEORIA         SUNNY     70  43  37 CALM      30.16F
$$

NOTE: "FAIR" INDICATES FEW OR NO CLOUDS BELOW 12,000 FEET WITH NO
SIGNIFICANT WEATHER AND/OR OBSTRUCTIONS TO VISIBILITY. WIND
SPEEDS ARE IN MILES-PER-HOUR.




USA.gov is the U.S. government's official web portal to all federal, state and local government web resources and services.